User: anonymous
Location: Caltech
(34.1382°N, 118.1253°W)
Time: 04:26:11
(UTC-07:00)
Language:

Cosmos 2251 Rocket - Orbit

View from above orbital plane
View from above orbital plane
View from above satellite
View from above satellite

Ground track
Ground track

The orbit data is extracted from the following two-line orbital elements,

1 22676U 93036B   14258.37326401  .00000204  00000-0  82964-4 0  3140
2 22676 074.0435 221.0766 0017876 136.7223 223.5337 14.33642789111189
Epoch (UTC): 15 September 2014 08:57:30
Eccentricity: 0.0017876
inclination: 74.0435°
perigee height: 767 km
apogee height: 792 km
right ascension of ascending node: 221.0766°
argument of perigee: 136.7223°
revolutions per day: 14.33642789
mean anomaly at epoch: 223.5337°
orbit number at epoch: 11118

The dashed part of the orbit path shows where the satellite is in the earth's shadow,  

DLR